{"data":{"norad_id":63720,"epoch":"2026-05-24T22:33:24.768000Z","epoch_age_seconds":76930,"freshness":"FRESH","line1":"1 63720U 25087Z   26144.93987000  .00013972  00000+0  48285-3 0  9994","line2":"2 63720  53.1575 225.3889 0001238  90.8014 269.3129 15.30207603 60879","mean_motion":15.30207603,"eccentricity":0.0001238,"inclination_deg":53.1575,"raan_deg":225.3889,"arg_perigee_deg":90.8014,"mean_anomaly_deg":269.3129,"bstar":0.00048285,"rev_number":6087,"period_min":94.104878133977,"perigee_km":474.34392614997,"apogee_km":476.04081050157,"semimajor_km":6853.3293683258,"source":"CELESTRAK","updated_at":"2026-05-25T13:38:20.101854Z"}}